Regional Weather Roundup
Issued by NWS

Home | Current Version | Previous Version | Text Only | Print | Product List | Glossary On
Versions: 1 2 3 4 5 6 7 8 9 10 11 12 13 14 15 16 17 18 19 20 21 22 23 24 25 26 27 28 29 30 31 32 33 34 35 36 37 38 39 40 41 42 43 44 45 46 47 48 49 50
836
ASUS44 KJAN 241310
RWRMS

MISSISSIPPI HOURLY WEATHER ROUNDUP
NATIONAL WEATHER SERVICE JACKSON MS
700 AM CST MON NOV 24 2014

NOTE: "FAIR: INDICATES FEW OR NO CLOUDS BELOW 12,000 FEET WITH NO
SIGNIFICANT WEATHER AND/OR OBSTRUCTIONS TO VISIBILITY.

MSZ001>002-007>008-010>013-018>021-025>028-034>036-241400-
NORTHWEST MISSISSIPPI

CITY           SKY/WX    TMP DP  RH WIND       PRES   REMARKS
CLARKSDALE     FAIR      48  41  76 W16G22    29.81R
CLEVELAND      FAIR      49  44  83 W10       29.82R
GREENWOOD      CLOUDY    53  42  66 W10G21    29.82R
GREENVILLE     CLEAR     51  42  71 W13       29.82R
GRENADA        FAIR      52  41  66 W9G18     29.80R
OLIVE BRANCH   PTCLDY    46  45  93 W12       29.74R
OXFORD         MOCLDY    50  41  71 W13G18    29.78R
TUNICA         CLOUDY    50  43  76 W14G24    29.80R
$$

MSZ003>006-009-014>017-022>024-029>033-037>039-241400-
NORTHEAST MISSISSIPPI

CITY           SKY/WX    TMP DP  RH WIND       PRES   REMARKS
COLUMBUS AFB   MOCLDY    59  51  74 W15G23    29.75R
CORINTH        CLOUDY    57  48  72 W14G24    29.69R
GOLDN TRIANGLE MOCLDY    59  50  72 W12G23    29.74R
STARKVILLE     PTSUNNY   57  50  77 W13G22    29.76R
TUPELO         MOCLDY    57  46  66 SW12G25   29.72R
$$

MSZ040-058-241400-
CENTRAL MISSISSIPPI

CITY           SKY/WX    TMP DP  RH WIND       PRES   REMARKS
JACKSON INTL   PTCLDY    55  47  74 W14G22    29.84R
JACKSON HAWKNS MOCLDY    53  45  74 NW15G25   29.84R
MERIDIAN KEY   MOCLDY    62  59  90 W15       29.79R
MERIDIAN NAS   CLOUDY    63  58  83 W9        29.79R
RAYMOND        PTSUNNY   54  48  82 NW16G23   29.85R
VICKSBURG      CLEAR     50  43  77 NW7       29.86R
$$

MSZ059>079-241400-
SOUTH MISSISSIPPI

CITY           SKY/WX    TMP DP  RH WIND       PRES   REMARKS
BROOKHAVEN     FAIR      57  54  88 W7        29.84R
COLUMBIA         N/A     61  59  94 MISG        N/A
HATTIESBURG    CLEAR     66  61  84 SW6       29.81R
MCCOMB         CLEAR     58  53  84 W7        29.83R
NATCHEZ        CLOUDY    52  43  71 NW8       29.88R
PINE BELT      CLEAR     61  57  88 SW3       29.81R
$$

MSZ080>082-241400-
COASTAL MISSISSIPPI

CITY           SKY/WX    TMP DP  RH WIND       PRES   REMARKS
BAY ST LOUIS   PTCLDY    66  63  88 CALM      29.82  FOG
BILOXI         CLEAR     65  65 100 VRB2      29.81R FOG
PASCAGOULA     MOCLDY    67  66  97 CALM      29.81R FOG
GULFPORT       CLEAR     66  65  96 W7        29.81R FOG
$$



USA.gov is the U.S. government's official web portal to all federal, state and local government web resources and services.